Location: Mentone
(34.5413°N, 85.5351°W)
Time: 05:15:32
(UTC-06:00)

AO-Echo - Pass Details

Date: 21 August 2017
Orbit: 693 x 811 km, 98.4° (Epoch: 22 November)

Event Time Altitude Azimuth Distance (km) Brightness Sun altitude
Rises 03:12:16 0° 352° (N) 3,096 ? -31.9°
Reaches altitude 10° 03:15:15 10° 332° (NNW) 2,188 ? -31.4°
Enters shadow 03:15:30 11° 329° (NNW) 2,130 ? -31.4°
